Location: Napa Junction
(38.1874°N, 122.2508°W)
Time: 23:37:23
(UTC+00:00)

CENTAUR R/B - Pass Details

Date: 08 December 2024
Orbit: 654 x 1528 km, 63.4° (Epoch: 19 January)

Event Time Altitude Azimuth Distance (km) Brightness Sun altitude
Rises 13:23:08 0° 174° (S) 3,107 5.4 -21.1°
Reaches altitude 10° 13:25:43 10° 160° (SSE) 2,278 4.9 -20.6°
Maximum altitude 13:29:50 24° 107° (ESE) 1,670 4.6 -19.8°
Drops below altitude 10° 13:34:36 10° 56° (NE) 2,678 5.4 -18.9°
Sets 13:37:54 0° 44° (NE) 3,794 6.0 -18.2°
